Tiempo cada hora Celaya

Hoy, 23 Abril, Viernes

Tiempo Temperatura Precipitaciones Viento Presión Humedad
00:00 +19°C° 0 mm 1 mps 618 mmHg 22%
01:00 +18°C° 0 mm 1 mps 617 mmHg 23%
02:00 +18°C° 0 mm 1 mps 617 mmHg 24%
03:00 +16°C° 0 mm 1 mps 617 mmHg 25%
04:00 +16°C° 0 mm 1 mps 617 mmHg 26%
05:00 +15°C° 0 mm 1 mps 617 mmHg 27%
06:00 +19°C° 0 mm 1 mps 618 mmHg 24%
07:00 +21°C° 0 mm 1 mps 619 mmHg 21%
08:00 +24°C° 0 mm 1 mps 620 mmHg 18%
09:00 +26°C° 0 mm 2 mps 620 mmHg 16%
10:00 +29°C° 0 mm 3 mps 620 mmHg 14%
11:00 +32°C° 0 mm 4 mps 620 mmHg 12%
12:00 +33°C° 0 mm 4 mps 620 mmHg 11%
13:00 +34°C° 0 mm 4 mps 619 mmHg 11%
14:00 +35°C° 0 mm 4 mps 619 mmHg 10%
15:00 +35°C° 0 mm 5 mps 618 mmHg 10%
16:00 +34°C° 0 mm 5 mps 618 mmHg 11%
17:00 +33°C° 0 mm 6 mps 618 mmHg 12%
18:00 +29°C° 0 mm 5 mps 618 mmHg 15%
19:00 +26°C° 0 mm 4 mps 618 mmHg 18%
20:00 +24°C° 0 mm 3 mps 618 mmHg 21%
21:00 +21°C° 0 mm 2 mps 618 mmHg 23%
22:00 +20°C° 0 mm 2 mps 618 mmHg 25%
23:00 +20°C° 0 mm 1 mps 617 mmHg 27%

Mañana, 24 Abril, Sábado

Tiempo Temperatura Precipitaciones Viento Presión Humedad
00:00 +19°C° 0 mm 1 mps 617 mmHg 28%
01:00 +19°C° 0 mm 1 mps 617 mmHg 29%
02:00 +18°C° 0 mm 1 mps 617 mmHg 31%
03:00 +16°C° 0 mm 1 mps 617 mmHg 32%
04:00 +16°C° 0 mm 1 mps 617 mmHg 33%
05:00 +15°C° 0 mm 1 mps 617 mmHg 34%
06:00 +19°C° 0 mm 1 mps 618 mmHg 30%
07:00 +22°C° 0 mm 1 mps 619 mmHg 27%
08:00 +24°C° 0 mm 1 mps 620 mmHg 23%
09:00 +26°C° 0 mm 1 mps 620 mmHg 20%
10:00 +29°C° 0 mm 2 mps 621 mmHg 17%
11:00 +31°C° 0 mm 2 mps 621 mmHg 15%
12:00 +32°C° 0 mm 2 mps 620 mmHg 13%
13:00 +34°C° 0 mm 2 mps 620 mmHg 12%
14:00 +35°C° 0 mm 2 mps 619 mmHg 11%
15:00 +35°C° 0 mm 2 mps 619 mmHg 11%
16:00 +34°C° 0 mm 2 mps 618 mmHg 11%
17:00 +34°C° 0 mm 2 mps 618 mmHg 10%
18:00 +30°C° 0 mm 3 mps 618 mmHg 17%
19:00 +27°C° 0 mm 3 mps 618 mmHg 23%
20:00 +25°C° 0 mm 4 mps 618 mmHg 30%
21:00 +23°C° 0 mm 4 mps 618 mmHg 36%
22:00 +21°C° 0 mm 3 mps 618 mmHg 43%
23:00 +20°C° 0 mm 2 mps 618 mmHg 49%

Pasado mañana, 25 Abril, Domingo

Tiempo Temperatura Precipitaciones Viento Presión Humedad
00:00 +19°C° 0 mm 2 mps 618 mmHg 54%
01:00 +19°C° 0 mm 2 mps 617 mmHg 58%
02:00 +19°C° 0 mm 1 mps 617 mmHg 63%
03:00 +18°C° 0 mm 1 mps 617 mmHg 67%
04:00 +17°C° 0 mm 2 mps 617 mmHg 71%
05:00 +16°C° 0 mm 2 mps 618 mmHg 75%
06:00 +19°C° 0 mm 2 mps 619 mmHg 66%
07:00 +21°C° 0 mm 2 mps 620 mmHg 57%
08:00 +25°C° 0 mm 2 mps 620 mmHg 47%
09:00 +27°C° 0 mm 1 mps 621 mmHg 38%
10:00 +30°C° 0 mm 1 mps 621 mmHg 30%
11:00 +32°C° 0 mm 1 mps 621 mmHg 21%
12:00 +33°C° 0 mm 1 mps 621 mmHg 19%
13:00 +35°C° 0 mm 2 mps 620 mmHg 16%
14:00 +36°C° 0 mm 2 mps 619 mmHg 14%
15:00 +35°C° 0 mm 2 mps 619 mmHg 15%
16:00 +34°C° 0 mm 2 mps 618 mmHg 16%
17:00 +34°C° 0 mm 3 mps 618 mmHg 17%
18:00 +30°C° 0 mm 3 mps 618 mmHg 28%
19:00 +26°C° 0 mm 4 mps 619 mmHg 39%
20:00 +22°C° 0 mm 4 mps 619 mmHg 50%
21:00 +22°C° 0 mm 3 mps 619 mmHg 52%
22:00 +21°C° 0 mm 3 mps 619 mmHg 54%
23:00 +20°C° 0 mm 2 mps 618 mmHg 56%

26 Abril, Lunes

Tiempo Temperatura Precipitaciones Viento Presión Humedad
00:00 +20°C° 0 mm 1 mps 618 mmHg 57%
01:00 +20°C° 0 mm 1 mps 618 mmHg 58%
02:00 +17°C° 0 mm 0 mps 617 mmHg 60%
03:00 +17°C° 0 mm 0 mps 617 mmHg 60%
04:00 +16°C° 0 mm 0 mps 617 mmHg 60%
05:00 +16°C° 0 mm 0 mps 618 mmHg 60%
06:00 +21°C° 0 mm 1 mps 619 mmHg 50%
07:00 +24°C° 0 mm 1 mps 620 mmHg 39%
08:00 +26°C° 0 mm 2 mps 621 mmHg 29%
09:00 +29°C° 0 mm 2 mps 621 mmHg 25%
10:00 +31°C° 0 mm 2 mps 621 mmHg 21%
11:00 +34°C° 0 mm 2 mps 621 mmHg 17%
12:00 +35°C° 0 mm 2 mps 620 mmHg 16%
13:00 +36°C° 0 mm 2 mps 620 mmHg 14%
14:00 +37°C° 0 mm 2 mps 619 mmHg 13%
15:00 +36°C° 0 mm 2 mps 619 mmHg 13%
16:00 +35°C° 0 mm 2 mps 618 mmHg 14%
17:00 +35°C° 0 mm 3 mps 618 mmHg 14%
18:00 +31°C° 0 mm 2 mps 618 mmHg 18%
19:00 +28°C° 0 mm 1 mps 618 mmHg 21%
20:00 +26°C° 0 mm 1 mps 618 mmHg 25%
21:00 +26°C° 0 mm 1 mps 619 mmHg 26%
22:00 +25°C° 0 mm 1 mps 619 mmHg 26%
23:00 +25°C° 0 mm 1 mps 619 mmHg 27%

27 Abril, Martes

Tiempo Temperatura Precipitaciones Viento Presión Humedad
00:00 +24°C° 0 mm 1 mps 619 mmHg 28%
01:00 +23°C° 0 mm 1 mps 618 mmHg 29%
02:00 +23°C° 0 mm 1 mps 618 mmHg 29%
03:00 +22°C° 0 mm 1 mps 618 mmHg 31%
04:00 +21°C° 0 mm 1 mps 618 mmHg 33%
05:00 +20°C° 0 mm 1 mps 618 mmHg 35%
06:00 +22°C° 0 mm 1 mps 619 mmHg 31%
07:00 +25°C° 0 mm 2 mps 620 mmHg 27%
08:00 +27°C° 0 mm 2 mps 621 mmHg 23%
09:00 +29°C° 0 mm 2 mps 620 mmHg 21%
10:00 +31°C° 0 mm 2 mps 620 mmHg 19%
11:00 +34°C° 0 mm 3 mps 620 mmHg 16%
12:00 +35°C° 0 mm 3 mps 620 mmHg 15%
13:00 +36°C° 0 mm 3 mps 619 mmHg 14%
14:00 +37°C° 0 mm 3 mps 619 mmHg 12%
15:00 +36°C° 0 mm 3 mps 618 mmHg 12%
16:00 +36°C° 0 mm 4 mps 618 mmHg 13%
17:00 +35°C° 0 mm 4 mps 617 mmHg 13%
18:00 +31°C° 0 mm 3 mps 617 mmHg 17%
19:00 +28°C° 0 mm 3 mps 617 mmHg 21%
20:00 +25°C° 0 mm 2 mps 617 mmHg 25%
21:00 +24°C° 0 mm 2 mps 617 mmHg 27%
22:00 +23°C° 0 mm 2 mps 617 mmHg 28%
23:00 +22°C° 0 mm 1 mps 617 mmHg 29%

28 Abril, Miércoles

Tiempo Temperatura Precipitaciones Viento Presión Humedad
00:00 +21°C° 0 mm 1 mps 617 mmHg 30%
01:00 +20°C° 0 mm 1 mps 617 mmHg 31%
02:00 +20°C° 0 mm 1 mps 616 mmHg 33%
03:00 +19°C° 0 mm 1 mps 617 mmHg 34%
04:00 +18°C° 0 mm 1 mps 617 mmHg 35%
05:00 +18°C° 0 mm 1 mps 617 mmHg 37%
06:00 +21°C° 0 mm 1 mps 618 mmHg 32%
07:00 +23°C° 0 mm 2 mps 619 mmHg 27%
08:00 +26°C° 0 mm 2 mps 620 mmHg 23%
09:00 +28°C° 0 mm 3 mps 620 mmHg 20%
10:00 +32°C° 0 mm 4 mps 620 mmHg 17%
11:00 +34°C° 0 mm 4 mps 620 mmHg 14%
12:00 +35°C° 0 mm 4 mps 619 mmHg 13%
13:00 +36°C° 0 mm 5 mps 619 mmHg 11%
14:00 +37°C° 0 mm 5 mps 618 mmHg 10%
15:00 +36°C° 0 mm 5 mps 618 mmHg 10%
16:00 +36°C° 0 mm 6 mps 618 mmHg 10%
17:00 +35°C° 0 mm 7 mps 618 mmHg 11%
18:00 +32°C° 0 mm 5 mps 617 mmHg 14%
19:00 +28°C° 0 mm 4 mps 617 mmHg 18%
20:00 +24°C° 0 mm 2 mps 617 mmHg 22%
21:00 +23°C° 0 mm 2 mps 617 mmHg 23%
22:00 +21°C° 0 mm 2 mps 618 mmHg 25%
23:00 +21°C° 0 mm 1 mps 618 mmHg 27%
Mostrar más

Necesitamos Su Consentimiento

Meteoprog y nuestros Proveedores de Servicios pueden almacenar y acceder a sus datos personales como cookies, identificadores de dispositivo u otras tecnologías similares de su dispositivo y procesar dichos datos para personalizar contenido y anuncios, además de ofrecer funciones de redes sociales y analizar el tráfico.

  • Almacenar y/o acceder a información en su dispositivo

    Se puede almacenar o acceder a cookies, identificadores de dispositivo u otra información de su dispositivo para los fines anteriormente indicados.

  • Anuncios y contenido personalizados, medición de anuncios y contenido, percepciones del público, y desarrollo de productos

    Los anuncios y el contenido pueden personalizarse en base a su perfil. Se pueden añadir más datos para personalizar mejor los anuncios y contenidos. Se puede medir el rendimiento de los anuncios y contenidos. Se puede obtener la percepción sobre el público que ha visto los anuncios y contenidos. Dichos datos pueden usarse para desarrollar o mejorar la experiencia del usuario, sistemas y software.

Al hacer clic en ‘Estoy De Acuerdo’ usted permitirá el uso de las cookies, identificadores de dispositivo, balizas web u otras tecnologías similares indicadas. Su configuración puede cambiarse desde el navegador de su dispositivo.

Para ciertos fines, los intereses legítimos pueden ser considerados por encima del consentimiento. Puede leer más sobre ello en nuestra Política de Privacidad y Cookies.